Regional Weather Roundup
Issued by NWS Boston, MA

Home | Current Version | Previous Version | Text Only | Print | Product List | Glossary On
Versions: 1 2 3 4 5 6 7 8 9 10 11 12 13 14 15 16 17 18 19 20 21 22 23 24 25 26 27 28 29 30 31 32 33 34 35 36 37 38 39 40 41 42 43 44 45 46 47 48 49 50
000
ASUS41 KBOX 292310
RWRBOX

REGIONAL WEATHER ROUNDUP
NATIONAL WEATHER SERVICE TAUNTON MA
700 PM EDT SAT AUG 29 2015

NOTE:  "FAIR" INDICATES FEW OR NO CLOUDS BELOW 12,000 FEET WITH NO
SIGNIFICANT WEATHER AND/OR OBSTRUCTIONS TO VISIBILITY.  THE FOLLOWING
OBSERVATION LOCATIONS DO NOT REPORT PRESENT WEATHER...PROVINCETOWN...
SMITHFIELD...BLOCK ISLAND...KEENE...AND OXFORD.

MAZALL-300000-
EASTERN MASSACHUSETTS

CITY           SKY/WX    TMP DP  RH WIND       PRES   REMARKS
BOSTON         MOCLDY    78  54  43 W10       30.08S
BEVERLY        PTCLDY    75  55  49 W7        30.07S
LAWRENCE       PTCLDY    76  55  48 W9        30.09S
BEDFORD        PTCLDY    73  54  51 SW5       30.07F
BLUE HILL        N/A     73  54  51 W10       30.09S
NORWOOD        PTCLDY    76  55  48 W6        30.08S
MARSHFIELD     PTCLDY    75  63  64 S7        30.10R
PLYMOUTH       PTCLDY    73  62  68 SW8       30.10S
TAUNTON        PTCLDY    74  59  59 S6        30.08S
NEW BEDFORD    PTCLDY    72  59  63 SW9       30.09F
$$

MAZALL-300000-
CAPE COD AND THE ISLANDS

CITY           SKY/WX    TMP DP  RH WIND       PRES   REMARKS
FALMOUTH       PTCLDY    72  61  68 SW10      30.11S
HYANNIS        PTCLDY    74  60  61 SW10      30.10S
CHATHAM        PTCLDY    71  62  73 SW7G18    30.11F
PROVINCETOWN   PTCLDY    72  57  60 SW14      30.09S
NANTUCKET      PTCLDY    72  64  76 S10       30.12F
MARTHAS VNYRD  PTCLDY    72  63  73 SW6       30.11F
$$

MAZALL-300000-
CENTRAL AND WESTERN MASSACHUSETTS

CITY           SKY/WX    TMP DP  RH WIND       PRES   REMARKS
WORCESTER      PTCLDY    71  55  56 W6        30.12F
FITCHBURG      PTCLDY    76  56  49 SW5       30.10S
ORANGE         PTCLDY    72  62  71 S3        30.10S
SPRINGFIELD    CLEAR     76  58  53 SW5       30.08S
WESTFIELD      CLEAR     77  57  50 SW5       30.09F
NORTH ADAMS    MOCLDY    70  63  78 CALM      30.10S
PITTSFIELD     PTCLDY    71  59  65 S5        30.11F
$$

RIZALL-300000-
RHODE ISLAND

CITY           SKY/WX    TMP DP  RH WIND       PRES   REMARKS
PROVIDENCE     PTCLDY    76  57  51 SW10      30.10S
NEWPORT        PTCLDY    73  63  70 S10       30.11S
BLOCK ISLAND   CLEAR     73  64  73 SW12      30.12F
SMITHFIELD     PTCLDY    72  59  64 CALM      30.10F
WESTERLY       CLEAR     75  63  66 SW12      30.11F
$$

CTZALL-300000-
CONNECTICUT

CITY           SKY/WX    TMP DP  RH WIND       PRES   REMARKS
BRADLEY INTL   PTCLDY    78  56  46 SW6       30.08F
HARTFORD       CLEAR     81  56  42 W7        30.08F
BRIDGEPORT     CLEAR     80  63  55 S10       30.10S
DANBURY        CLEAR     75  60  59 CALM      30.11F
GROTON         CLEAR     73  66  78 SW10      30.10S
NEW HAVEN      PTCLDY    76  62  62 S6        30.10F
CHESTER        NOT AVBL
MERIDEN        CLEAR     78  57  48 S5        30.09F
WILLIMANTIC    CLEAR     78  58  49 CALM      30.10S
OXFORD         CLEAR     77  57  50 CALM      30.14F
$$

MEZ002-015-021-024-NHZ003-005-008-011-012-014-VTZ005-008-300000-
NORTHERN NEW ENGLAND

CITY           SKY/WX    TMP DP  RH WIND       PRES   REMARKS
PORTLAND ME    CLOUDY    70  62  76 S7        30.06S
BANGOR ME      CLOUDY    69  59  70 S7        30.05S
CONCORD NH     MOCLDY    73  59  61 S5        30.07F
MANCHESTER NH  MOCLDY    77  56  48 SW5       30.06F
NASHUA NH      MOCLDY    75  57  53 CALM      30.08F
PORTSMOUTH NH  CLOUDY    73  60  63 CALM      30.05S
JAFFREY NH     MOCLDY    71  58  63 SW5       30.12S
KEENE NH       MOCLDY    70  59  68 S3        30.10R
BURLINGTON VT  MOCLDY    77  56  48 S3        30.05F
MT. WASHINGTON FOG       46  46 100 W28         N/A  VSB 1/8
$$

NYZ052-076-300000-
EASTERN NEW YORK

CITY           SKY/WX    TMP DP  RH WIND       PRES   REMARKS
ALBANY         MOCLDY    77  60  55 SE3       30.07F
NEW YORK CITY  PTCLDY    78  59  51 S15       30.10S
$$

ANZALL-300000-
MARINE OBSERVATIONS

STATION/POSITION TIME  TEMP    WIND        PRES    VSBY  WAVE
                       AIR SEA DIR/SP/G                  HT/PER
                 (UTC) (F)     (DEG/KT/KT) (MB)    (MI)  (FT/S)
BOSTON BUOY      2250   73 71  200/  4/  6 1018.9S         2/10
BUZZARDS BAY     2200          210/ 14/ 15 1020.4F
NANTUCKET SOUND  2250   73 75  220/ 14/ 16 1019.3F         1/ 2
MASS BAY-STELLWA 2204   73 70  160/  8/  8   N/A    1 7/8  3/11
ISLE OF SHOALS   2300   70     180/ 15/ 16 1017.5F
S OF BLOCK IS    2208      75                N/A           3/11
$$

......................KEY.........................
  SKY/WX - SKY CONDITION/PRESENT WEATHER
  TMP    - TEMPERATURE IN FAHRENHEIT
  DWPT   - DEWPOINT IN FAHRENHEIT
  RH     - RELATIVE HUMIDITY IN PERCENT
  WIND   - DIRECTION AND SPEED IN MPH
  PRES   - MEAN SEA LEVEL PRESSURE IN INCHES OF HG
  WCI    - WIND CHILL INDEX
  VSB    - VISIBILITY IN MILES
  HX     - HEAT INDEX
  TC     - TEMPERATURE IN CELSIUS
  VRB    - VARIABLE WIND DIRECTION
  N/A    - NOT AVAILABLE



USA.gov is the U.S. government's official web portal to all federal, state and local government web resources and services.